When you browse on this site, cookies collect data to enhance your experience and personalize the content and advertising you see.
Visit our Privacy Policy to learn more. By continuing to use the site, you agree to this use of cookies and data.
  • In United Kingdom
  • List of Countries
  • For 7 days
  • Water Temperature
  • Weather Map
  • Weather Widgets
  • user-avatar
    Login

    Hourly Weather Jutiapa

    Today, 11 December, Wednesday

    Time Temperature Precipitation Wind Pressure Humidity
    00:00 +18°C° 0 mm 2 mps 673 mmHg 90%
    01:00 +18°C° 0 mm 2 mps 672 mmHg 91%
    02:00 +18°C° 0 mm 2 mps 672 mmHg 93%
    03:00 +18°C° 0 mm 2 mps 672 mmHg 94%
    04:00 +17°C° 0 mm 2 mps 672 mmHg 94%
    05:00 +17°C° 0 mm 2 mps 672 mmHg 94%
    06:00 +17°C° 0 mm 2 mps 673 mmHg 94%
    07:00 +19°C° 0 mm 2 mps 674 mmHg 84%
    08:00 +23°C° 0 mm 2 mps 675 mmHg 73%
    09:00 +25°C° 0 mm 3 mps 676 mmHg 63%
    10:00 +26°C° 0 mm 3 mps 676 mmHg 58%
    11:00 +28°C° 0 mm 3 mps 675 mmHg 53%
    12:00 +29°C° 0 mm 4 mps 675 mmHg 48%
    13:00 +29°C° 0 mm 4 mps 675 mmHg 49%
    14:00 +29°C° 0 mm 4 mps 674 mmHg 49%
    15:00 +29°C° 0 mm 4 mps 674 mmHg 50%
    16:00 +27°C° 0 mm 4 mps 673 mmHg 58%
    17:00 +24°C° 0 mm 3 mps 673 mmHg 65%
    18:00 +21°C° 0 mm 2 mps 673 mmHg 73%
    19:00 +20°C° 0 mm 3 mps 673 mmHg 78%
    20:00 +20°C° 0 mm 3 mps 674 mmHg 82%
    21:00 +19°C° 0 mm 3 mps 674 mmHg 86%
    22:00 +19°C° 0 mm 3 mps 674 mmHg 87%
    23:00 +18°C° 0 mm 3 mps 674 mmHg 87%

    Tomorrow, 12 December, Thursday

    Time Temperature Precipitation Wind Pressure Humidity
    00:00 +18°C° 0 mm 3 mps 673 mmHg 88%
    01:00 +18°C° 0 mm 3 mps 673 mmHg 88%
    02:00 +18°C° 0 mm 3 mps 673 mmHg 88%
    03:00 +17°C° 0 mm 3 mps 673 mmHg 87%
    04:00 +17°C° 0 mm 3 mps 673 mmHg 86%
    05:00 +17°C° 0 mm 3 mps 673 mmHg 85%
    06:00 +17°C° 0 mm 3 mps 673 mmHg 83%
    07:00 +19°C° 0 mm 3 mps 674 mmHg 76%
    08:00 +21°C° 0 mm 4 mps 675 mmHg 68%
    09:00 +23°C° 0 mm 4 mps 675 mmHg 60%
    10:00 +25°C° 0 mm 4 mps 675 mmHg 56%
    11:00 +27°C° 0 mm 4 mps 675 mmHg 52%
    12:00 +28°C° 0 mm 4 mps 675 mmHg 48%
    13:00 +28°C° 0 mm 4 mps 674 mmHg 49%
    14:00 +28°C° 0 mm 4 mps 674 mmHg 50%
    15:00 +28°C° 0 mm 4 mps 673 mmHg 50%
    16:00 +26°C° 0 mm 4 mps 673 mmHg 57%
    17:00 +24°C° 0 mm 3 mps 673 mmHg 65%
    18:00 +21°C° 0 mm 3 mps 672 mmHg 72%
    19:00 +20°C° 0 mm 3 mps 673 mmHg 76%
    20:00 +19°C° 0 mm 3 mps 673 mmHg 79%
    21:00 +19°C° 0 mm 3 mps 673 mmHg 83%
    22:00 +18°C° 0 mm 2 mps 673 mmHg 86%
    23:00 +17°C° 0 mm 2 mps 673 mmHg 88%

    Day after tomorrow, 13 December, Friday

    Time Temperature Precipitation Wind Pressure Humidity
    00:00 +17°C° 0 mm 2 mps 672 mmHg 91%
    01:00 +17°C° 0 mm 2 mps 672 mmHg 91%
    02:00 +16°C° 0 mm 2 mps 672 mmHg 92%
    03:00 +16°C° 0 mm 2 mps 671 mmHg 92%
    04:00 +16°C° 0 mm 2 mps 671 mmHg 92%
    05:00 +16°C° 0 mm 2 mps 672 mmHg 92%
    06:00 +16°C° 0 mm 2 mps 672 mmHg 92%
    07:00 +18°C° 0 mm 2 mps 672 mmHg 81%
    08:00 +20°C° 0 mm 2 mps 673 mmHg 71%
    09:00 +24°C° 0 mm 2 mps 674 mmHg 60%
    10:00 +25°C° 0 mm 2 mps 674 mmHg 55%
    11:00 +27°C° 0 mm 2 mps 674 mmHg 49%
    12:00 +28°C° 0 mm 3 mps 674 mmHg 43%
    13:00 +28°C° 0 mm 2 mps 673 mmHg 45%
    14:00 +28°C° 0 mm 2 mps 672 mmHg 46%
    15:00 +28°C° 0 mm 2 mps 672 mmHg 48%
    16:00 +25°C° 0 mm 2 mps 672 mmHg 59%
    17:00 +23°C° 0 mm 1 mps 671 mmHg 69%
    18:00 +19°C° 0 mm 0 mps 671 mmHg 80%
    19:00 +20°C° 0 mm 1 mps 671 mmHg 81%
    20:00 +20°C° 0 mm 1 mps 672 mmHg 83%
    21:00 +19°C° 0 mm 1 mps 672 mmHg 85%
    22:00 +19°C° 0 mm 1 mps 672 mmHg 86%
    23:00 +18°C° 0 mm 1 mps 672 mmHg 87%

    14 December, Saturday

    Time Temperature Precipitation Wind Pressure Humidity
    00:00 +18°C° 0 mm 1 mps 671 mmHg 88%
    01:00 +18°C° 0 mm 1 mps 671 mmHg 88%
    02:00 +17°C° 0 mm 2 mps 671 mmHg 89%
    03:00 +16°C° 0 mm 2 mps 670 mmHg 90%
    04:00 +16°C° 0 mm 2 mps 671 mmHg 90%
    05:00 +16°C° 0 mm 1 mps 671 mmHg 90%
    06:00 +16°C° 0 mm 1 mps 671 mmHg 90%
    07:00 +20°C° 0 mm 1 mps 672 mmHg 80%
    08:00 +22°C° 0 mm 1 mps 673 mmHg 69%
    09:00 +25°C° 0 mm 1 mps 674 mmHg 59%
    10:00 +26°C° 0 mm 1 mps 674 mmHg 54%
    11:00 +28°C° 0 mm 1 mps 673 mmHg 48%
    12:00 +29°C° 0 mm 2 mps 673 mmHg 43%
    13:00 +29°C° 0 mm 2 mps 673 mmHg 45%
    14:00 +29°C° 0 mm 2 mps 672 mmHg 46%
    15:00 +28°C° 0 mm 2 mps 672 mmHg 48%
    16:00 +26°C° 0 mm 1 mps 671 mmHg 60%
    17:00 +23°C° 0 mm 1 mps 671 mmHg 72%
    18:00 +21°C° 0 mm 1 mps 671 mmHg 83%
    19:00 +20°C° 0 mm 1 mps 671 mmHg 85%
    20:00 +20°C° 0 mm 1 mps 672 mmHg 87%
    21:00 +19°C° 0 mm 1 mps 672 mmHg 89%
    22:00 +19°C° 0 mm 1 mps 672 mmHg 90%
    23:00 +19°C° 0 mm 1 mps 672 mmHg 90%

    15 December, Sunday

    Time Temperature Precipitation Wind Pressure Humidity
    00:00 +18°C° 0 mm 1 mps 672 mmHg 90%
    01:00 +18°C° 0 mm 1 mps 671 mmHg 91%
    02:00 +17°C° 0 mm 2 mps 671 mmHg 91%
    03:00 +17°C° 0 mm 2 mps 671 mmHg 91%
    04:00 +17°C° 0 mm 2 mps 671 mmHg 92%
    05:00 +17°C° 0 mm 2 mps 671 mmHg 92%
    06:00 +17°C° 0 mm 2 mps 672 mmHg 92%
    07:00 +19°C° 0 mm 2 mps 673 mmHg 83%
    08:00 +21°C° 0 mm 2 mps 674 mmHg 73%
    09:00 +24°C° 0 mm 2 mps 675 mmHg 63%
    10:00 +26°C° 0 mm 2 mps 675 mmHg 58%
    11:00 +27°C° 0 mm 2 mps 675 mmHg 52%
    12:00 +28°C° 0 mm 3 mps 674 mmHg 46%
    13:00 +28°C° 0 mm 3 mps 674 mmHg 47%
    14:00 +28°C° 0 mm 3 mps 673 mmHg 49%
    15:00 +28°C° 0 mm 2 mps 672 mmHg 50%
    16:00 +25°C° 0 mm 2 mps 672 mmHg 60%
    17:00 +23°C° 0 mm 1 mps 672 mmHg 70%
    18:00 +20°C° 0 mm 1 mps 671 mmHg 81%
    19:00 +20°C° 0 mm 1 mps 672 mmHg 82%
    20:00 +19°C° 0 mm 1 mps 672 mmHg 82%
    21:00 +19°C° 0 mm 1 mps 672 mmHg 83%
    22:00 +19°C° 0 mm 1 mps 672 mmHg 83%
    23:00 +18°C° 0 mm 1 mps 672 mmHg 83%

    16 December, Monday

    Time Temperature Precipitation Wind Pressure Humidity
    00:00 +18°C° 0 mm 1 mps 672 mmHg 82%
    01:00 +18°C° 0 mm 1 mps 672 mmHg 83%
    02:00 +18°C° 0 mm 1 mps 671 mmHg 83%
    03:00 +18°C° 0 mm 1 mps 671 mmHg 83%
    04:00 +18°C° 0 mm 1 mps 671 mmHg 84%
    05:00 +18°C° 0 mm 1 mps 672 mmHg 85%
    06:00 +16°C° 0 mm 1 mps 672 mmHg 86%
    07:00 +20°C° 0 mm 1 mps 673 mmHg 77%
    08:00 +22°C° 0 mm 1 mps 674 mmHg 69%
    09:00 +25°C° 0 mm 1 mps 675 mmHg 60%
    10:00 +27°C° 0 mm 1 mps 674 mmHg 54%
    11:00 +29°C° 0 mm 1 mps 674 mmHg 49%
    12:00 +30°C° 0 mm 1 mps 674 mmHg 43%
    13:00 +30°C° 0 mm 1 mps 673 mmHg 44%
    14:00 +30°C° 0 mm 2 mps 673 mmHg 45%
    15:00 +29°C° 0 mm 2 mps 672 mmHg 46%
    16:00 +26°C° 0 mm 2 mps 672 mmHg 59%
    17:00 +24°C° 0 mm 1 mps 671 mmHg 72%
    18:00 +21°C° 0 mm 1 mps 671 mmHg 86%
    19:00 +21°C° 0 mm 1 mps 671 mmHg 88%
    20:00 +20°C° 0 mm 1 mps 672 mmHg 91%
    21:00 +20°C° 0 mm 1 mps 672 mmHg 93%
    22:00 +19°C° 0 mm 1 mps 672 mmHg 92%
    23:00 +19°C° 0 mm 1 mps 672 mmHg 91%
    Show more